Tracking 31027 objects as of 19-Jul-2025
HD Live streaming from Space Station
objects crossing your sky now

OSCAR 29

Track OSCAR 29 now!
10-day predictions
OSCAR 29 is classified as:


NORAD ID: 18362
Int'l Code: 1987-080B
Perigee: 1,022.2 km
Apogee: 1,177.8 km
Inclination: 90.4 °
Period: 107.1 minutes
Semi major axis: 7471 km
RCS: 1.4883 m2 (large)
Launch date: September 16, 1987
Source: United States (US)
Launch site: AIR FORCE WESTERN TEST RANGE (AFWTR)
Your satellite tracking list
ICEYE-X27
Track 1 satellite(s)




NASA's NSSDC Master Catalog

Two Line Element Set (TLE):
1 18362U 87080B   25199.44068006  .00000035  00000-0  46874-4 0  9998
2 18362  90.3705  74.2898 0104128 310.1002 224.3510 13.44418662855304
Source of the keplerian elements: AFSPC